Regional Weather Roundup
Issued by NWS

Home | Current Version | Previous Version | Graphics & Text | Print | Product List | Glossary On
Versions: 1 2 3 4 5 6 7 8 9 10 11 12 13 14 15 16 17 18 19 20 21 22 23 24 25 26 27 28
000
ASUS45 KBOI 241110
RWRID

IDAHO REGIONAL WEATHER ROUNDUP
NATIONAL WEATHER SERVICE BOISE ID
400 AM MST SAT FEB 24 2018

NOTE: "FAIR" INDICATES FEW OR NO CLOUDS BELOW 12000 FEET
WITH NO SIGNIFICANT WEATHER AND/OR OBSTRUCTIONS TO VISIBILITY

IDZ012-014-241200-
SOUTHWEST IDAHO


CITY           SKY/WX    TMP DP  RH WIND       PRES   REMARKS
BOISE          CLOUDY    25  15  66 SE12      30.14F WCI  14
CALDWELL       CLOUDY    27  18  69 E7        30.16F WCI  19
MOUNTAIN HOME  CLOUDY    22  21  95 CALM      30.15F
$$

IDZ016-017-241200-
SOUTHCENTRAL IDAHO


CITY           SKY/WX    TMP DP  RH WIND       PRES   REMARKS
BURLEY         PTCLDY    21   9  59 W12G21    30.08F WCI   9
JEROME         CLOUDY    20  10  65 SW7       30.11F WCI  11
TWIN FALLS     CLOUDY    20  12  71 S12       30.11F WCI   8
$$

IDZ019>023-241200-
SOUTHEAST IDAHO


CITY           SKY/WX    TMP DP  RH WIND       PRES   REMARKS
IDAHO FALLS    CLOUDY    17   8  67 SW16G29   30.02F WCI   2
POCATELLO      CLOUDY    21  10  62 SW22      30.07F WCI   5
REXBURG        FLURRIES  15  12  88 SW12G18   29.99F WCI   2
$$

IDZ006-010-011-018-031-032-241200-
CENTRAL IDAHO MOUNTAINS


CITY           SKY/WX    TMP DP  RH WIND       PRES   REMARKS
MCCALL         LGT SNOW  14  11  87 N3        29.98F VSB 1
HAILEY           N/A    N/A N/A N/A MISG        N/A
STANLEY          N/A     11   6  81 E3        29.95F
SALMON         CLOUDY    17  11  77 NW7       29.98F WCI   8
CHALLIS        MOCLDY    21   4  47 S8        29.94F WCI  11
$$

IDZ002-004-006-007-026-241200-
NORTHERN IDAHO


CITY           SKY/WX    TMP DP  RH WIND       PRES   REMARKS
LEWISTON       CLOUDY    29  24  82 E8        30.02F WCI  21
LOWELL           N/A     27  24  89 CALM      30.11F
COEUR D`ALENE  FLURRIES  23  19  85 S7        29.97F WCI  15
MULLAN PASS    LGT SNOW   9   7  92 VRB6      29.75F FOG     WCI  -1
$$




USA.gov is the U.S. government's official web portal to all federal, state and local government web resources and services.